DW2080 Weather Reports


Display with metric or nautical units.
time (UTC)temp
F
wind
direction
speed
MPH
gust
MPH
rain 1hr
in
rain 24hr
in
rain mn
in
humidity
%
barometer
mb
20240523153549 89 130 0.0 10.0 0.00 0.00 0.00 71 1010.7
20240523153055 89 169 0.0 10.0 0.00 0.00 0.00 72 1010.7
20240523152548 89 0 0.0 5.0 0.00 0.00 0.00 72 1010.7
20240523152049 89 200 0.0 7.0 0.00 0.00 0.00 73 1010.5
20240523151613 88 0 1.0 7.0 0.00 0.00 0.00 73 1010.5
20240523151047 88 197 1.0 6.0 0.00 0.00 0.00 74 1010.6
20240523150548 88 159 1.0 6.0 0.00 0.00 0.00 75 1010.5
20240523150104 87 0 1.0 6.0 0.00 0.00 0.00 75 1010.6
20240523145551 87 0 0.0 6.0 0.00 0.00 0.00 74 1010.4
20240523145048 87 147 1.0 6.0 0.00 0.00 0.00 75 1010.6
20240523144557 87 0 0.0 6.0 0.00 0.00 0.00 75 1010.5
20240523144051 87 0 1.0 5.0 0.00 0.00 0.00 76 1010.5
20240523143548 86 124 1.0 7.0 0.00 0.00 0.00 78 1010.7
20240523143102 86 155 1.0 8.0 0.00 0.00 0.00 78 1010.7
20240523142550 86 165 1.0 10.0 0.00 0.00 0.00 78 1010.7
20240523142048 86 136 1.0 10.0 0.00 0.00 0.00 78 1010.6
20240523141554 85 0 0.0 8.0 0.00 0.00 0.00 78 1010.6
20240523141050 85 205 1.0 7.0 0.00 0.00 0.00 79 1010.6
20240523140548 85 118 0.0 9.0 0.00 0.00 0.00 80 1010.4
20240523140059 85 0 1.0 9.0 0.00 0.00 0.00 80 1010.2
20240523135550 85 151 1.0 6.0 0.00 0.00 0.00 80 1010.3
20240523135048 84 236 0.0 5.0 0.00 0.00 0.00 81 1010.3
20240523134601 84 133 0.0 11.0 0.00 0.00 0.00 81 1010.4
20240523134051 84 0 0.0 11.0 0.00 0.00 0.00 81 1010.7
20240523133548 84 0 0.0 5.0 0.00 0.00 0.00 82 1010.6
20240523133109 83 0 0.0 5.0 0.00 0.00 0.00 82 1010.6
20240523132548 83 120 1.0 5.0 0.00 0.00 0.00 83 1010.4
20240523132048 83 0 0.0 6.0 0.00 0.00 0.00 84 1010.5
20240523131603 83 0 0.0 7.0 0.00 0.00 0.00 84 1010.2
20240523131048 83 150 0.0 9.0 0.00 0.00 0.00 84 1010.3
20240523130548 83 0 2.0 9.0 0.00 0.00 0.00 84 1010.2
20240523130100 83 141 0.0 6.0 0.00 0.00 0.00 84 1010.2
20240523125549 83 0 0.0 7.0 0.00 0.00 0.00 84 1010.2
20240523125048 83 0 0.0 8.0 0.00 0.00 0.00 85 1010.2
20240523124611 82 158 1.0 8.0 0.00 0.00 0.00 85 1010.3
20240523124048 82 146 0.0 5.0 0.00 0.00 0.00 87 1010.1
20240523123548 82 0 1.0 8.0 0.00 0.00 0.00 87 1010.2
20240523123053 81 0 1.0 8.0 0.00 0.00 0.00 87 1010.1
20240523122549 81 143 1.0 8.0 0.00 0.00 0.00 87 1009.9
20240523122053 81 132 1.0 8.0 0.00 0.00 0.00 87 1009.9
20240523121554 81 146 2.0 8.0 0.00 0.00 0.00 87 1010.0
20240523121048 81 146 2.0 8.0 0.00 0.00 0.00 87 1010.2
20240523120548 81 137 0.0 8.0 0.00 0.00 0.00 88 1010.2
20240523120057 81 126 2.0 8.0 0.00 0.00 0.00 88 1010.2
20240523115548 81 161 1.0 8.0 0.00 0.00 0.00 88 1010.1
20240523115048 81 0 1.0 8.0 0.00 0.00 0.00 88 1010.1
20240523114549 81 121 2.0 8.0 0.00 0.00 0.00 88 1010.2
20240523114049 81 126 1.0 7.0 0.00 0.00 0.00 88 1010.1
20240523113550 81 0 1.0 7.0 0.00 0.00 0.00 88 1010.1
20240523113048 81 152 1.0 7.0 0.00 0.00 0.00 88 1010.0
20240523112551 81 155 2.0 8.0 0.00 0.00 0.00 88 1009.9
20240523112048 80 0 2.0 9.0 0.00 0.00 0.00 88 1009.9
20240523111604 80 144 1.0 12.0 0.00 0.00 0.00 88 1009.7
20240523111049 80 130 2.0 12.0 0.00 0.00 0.00 88 1009.7
20240523110550 81 140 1.0 7.0 0.00 0.00 0.00 88 1009.7
20240523110053 81 146 1.0 8.0 0.00 0.00 0.00 88 1009.7
20240523105549 81 144 2.0 9.0 0.00 0.00 0.00 88 1009.8
20240523105048 81 0 0.0 9.0 0.00 0.00 0.00 88 1009.9
20240523104555 81 124 1.0 8.0 0.00 0.00 0.00 88 1010.0
20240523104048 81 130 1.0 7.0 0.00 0.00 0.00 88 1010.1
20240523103548 81 0 1.0 8.0 0.00 0.00 0.00 88 1010.1
20240523103051 81 0 1.0 8.0 0.00 0.00 0.00 88 1010.1
20240523102548 81 0 1.0 9.0 0.00 0.00 0.00 88 1010.2
20240523102048 81 0 1.0 9.0 0.00 0.00 0.00 88 1010.1
20240523101552 81 0 1.0 9.0 0.00 0.00 0.00 87 1010.3
20240523101048 81 134 0.0 7.0 0.00 0.00 0.00 88 1010.3
20240523100547 81 0 1.0 7.0 0.00 0.00 0.00 87 1010.2
20240523100059 81 150 0.0 7.0 0.00 0.00 0.00 88 1010.4
20240523095551 81 145 1.0 5.0 0.00 0.00 0.00 88 1010.4
20240523095051 81 0 1.0 9.0 0.00 0.00 0.00 87 1010.5
20240523094558 81 0 2.0 9.0 0.00 0.00 0.00 87 1010.5
20240523094052 81 0 2.0 8.0 0.00 0.00 0.00 88 1010.7
20240523093552 81 0 1.0 8.0 0.00 0.00 0.00 87 1010.8
20240523093059 81 0 1.0 8.0 0.00 0.00 0.00 88 1010.8
20240523092554 81 0 2.0 8.0 0.00 0.00 0.00 87 1010.9
20240523092051 81 0 1.0 8.0 0.00 0.00 0.00 87 1010.9
20240523091602 81 132 1.0 9.0 0.00 0.00 0.00 87 1010.8
20240523091053 81 0 1.0 9.0 0.00 0.00 0.00 87 1010.7
20240523090551 81 141 1.0 7.0 0.00 0.00 0.00 87 1010.7
20240523090106 81 0 2.0 7.0 0.00 0.00 0.00 87 1010.9
20240523085552 81 0 1.0 7.0 0.00 0.00 0.00 87 1010.9
20240523085052 81 153 1.0 8.0 0.00 0.00 0.00 87 1011.0
20240523084555 81 131 2.0 8.0 0.00 0.00 0.00 87 1010.9
20240523084052 81 166 2.0 9.0 0.00 0.00 0.00 87 1010.8
20240523083552 81 0 1.0 9.0 0.00 0.00 0.00 87 1010.9
20240523083053 81 0 1.0 7.0 0.00 0.00 0.00 87 1010.7
20240523082551 81 131 2.0 7.0 0.00 0.00 0.00 87 1010.5
20240523082053 81 131 2.0 9.0 0.00 0.00 0.00 88 1010.7
20240523081601 81 0 1.0 9.0 0.00 0.00 0.00 88 1010.7
20240523081051 81 0 1.0 11.0 0.00 0.00 0.00 88 1010.6
20240523080551 81 0 2.0 11.0 0.00 0.00 0.00 88 1010.5
20240523080051 81 127 2.0 9.0 0.00 0.00 0.00 88 1010.3
20240523075551 81 138 2.0 9.0 0.00 0.00 0.00 88 1010.4
20240523075053 81 126 2.0 9.0 0.00 0.00 0.00 88 1010.6
20240523074559 81 140 2.0 9.0 0.00 0.00 0.00 88 1010.4
20240523074052 81 129 0.0 18.0 0.00 0.00 0.00 88 1010.8
20240523073553 81 140 1.0 18.0 0.00 0.00 0.00 88 1010.6
20240523073051 81 144 1.0 7.0 0.00 0.00 0.00 88 1010.6
20240523072552 81 0 1.0 7.0 0.00 0.00 0.00 88 1010.8
20240523072051 81 142 1.0 7.0 0.00 0.00 0.00 88 1011.0
20240523071554 81 0 1.0 10.0 0.00 0.00 0.00 88 1011.1
20240523071054 81 126 2.0 10.0 0.00 0.00 0.00 88 1010.7
20240523070551 81 138 1.0 9.0 0.00 0.00 0.00 88 1010.9
20240523070102 81 130 1.0 9.0 0.00 0.00 0.00 88 1011.0
20240523065551 81 128 3.0 8.0 0.00 0.00 0.00 88 1010.9
20240523065052 81 120 2.0 9.0 0.00 0.00 0.00 88 1010.9
20240523064606 81 0 3.0 10.0 0.00 0.00 0.00 88 1011.0
20240523064049 81 157 3.0 10.0 0.00 0.00 0.00 88 1010.9
20240523063548 81 0 2.0 9.0 0.00 0.00 0.00 88 1010.8
20240523063052 81 134 1.0 8.0 0.00 0.00 0.00 88 1010.9
20240523062548 81 0 2.0 8.0 0.00 0.00 0.00 88 1011.1
20240523062048 81 138 3.0 9.0 0.00 0.00 0.00 88 1011.2
20240523061602 81 0 2.0 9.0 0.00 0.00 0.00 88 1011.3
20240523061047 81 146 0.0 10.0 0.00 0.00 0.00 88 1011.4
20240523060548 81 0 1.0 10.0 0.00 0.00 0.00 88 1011.3
20240523060055 81 0 0.0 8.0 0.00 0.00 0.00 88 1011.6
20240523055551 81 151 1.0 7.0 0.00 0.00 0.00 88 1011.5
20240523055049 81 0 1.0 7.0 0.00 0.00 0.00 88 1011.5
20240523054559 81 0 2.0 7.0 0.00 0.00 0.00 88 1011.5
20240523054048 81 142 2.0 7.0 0.00 0.00 0.00 88 1011.7
20240523053548 81 130 1.0 7.0 0.00 0.00 0.00 88 1012.0
20240523053058 81 195 1.0 6.0 0.00 0.00 0.00 88 1012.2
20240523052551 81 0 1.0 7.0 0.00 0.00 0.00 88 1012.2
20240523052048 81 0 0.0 7.0 0.00 0.00 0.00 87 1012.2
20240523051554 81 148 0.0 7.0 0.00 0.00 0.00 87 1012.3
20240523051051 81 0 1.0 5.0 0.00 0.00 0.00 87 1012.3
20240523050549 81 0 1.0 7.0 0.00 0.00 0.00 88 1012.4
20240523050056 81 0 0.0 7.0 0.00 0.00 0.00 87 1012.3
20240523045551 81 155 1.0 6.0 0.00 0.00 0.00 87 1012.3
20240523045047 81 0 0.0 6.0 0.00 0.00 0.00 88 1012.4
20240523044548 81 0 2.0 6.0 0.00 0.00 0.00 88 1012.4
20240523044048 81 103 1.0 5.0 0.00 0.00 0.00 88 1012.3
20240523043547 81 0 1.0 5.0 0.00 0.00 0.00 88 1012.5
20240523043055 81 0 1.0 8.0 0.00 0.00 0.00 88 1012.5
20240523042548 82 0 2.0 8.0 0.00 0.00 0.00 88 1012.6
20240523042048 82 125 2.0 6.0 0.00 0.00 0.00 88 1012.8
20240523041554 82 114 1.0 9.0 0.00 0.00 0.00 88 1012.8
20240523041048 82 0 2.0 9.0 0.00 0.00 0.00 88 1012.7
20240523040548 82 0 1.0 7.0 0.00 0.00 0.00 88 1012.6
20240523040106 82 136 1.0 7.0 0.00 0.00 0.00 88 1012.6
20240523035551 82 97 0.0 8.0 0.00 0.00 0.00 87 1012.7
20240523035050 82 0 0.0 8.0 0.00 0.00 0.00 87 1012.8
20240523034554 82 121 0.0 6.0 0.00 0.00 0.00 88 1012.7
20240523034048 82 0 1.0 6.0 0.00 0.00 0.00 87 1012.5
20240523033550 82 0 0.0 5.0 0.00 0.00 0.00 87 1012.4
20240523033052 82 100 1.0 6.0 0.00 0.00 0.00 87 1012.4
20240523032553 82 120 0.0 6.0 0.00 0.00 0.00 87 1012.4
20240523032050 82 0 0.0 7.0 0.00 0.00 0.00 87 1012.2
20240523031555 82 0 1.0 7.0 0.00 0.00 0.00 88 1012.1
20240523031051 82 0 1.0 6.0 0.00 0.00 0.00 87 1012.1
20240523030552 82 0 0.0 3.0 0.00 0.00 0.00 87 1012.1
20240523030055 82 0 0.0 3.0 0.00 0.00 0.00 87 1012.0
20240523025550 82 0 0.0 3.0 0.00 0.00 0.00 87 1012.0
20240523025055 82 0 0.0 3.0 0.00 0.00 0.00 87 1011.9
20240523024551 82 0 0.0 2.0 0.00 0.00 0.00 87 1011.8
20240523024051 82 0 0.0 2.0 0.00 0.00 0.00 87 1011.8
20240523023551 82 0 0.0 4.0 0.00 0.00 0.00 87 1011.5
20240523023052 82 0 0.0 4.0 0.00 0.00 0.00 87 1011.2
20240523022551 82 0 0.0 4.0 0.00 0.00 0.00 86 1010.9
20240523022050 82 0 0.0 6.0 0.00 0.00 0.00 86 1010.7
20240523021555 82 184 1.0 6.0 0.00 0.00 0.00 86 1010.5
20240523021052 82 0 0.0 4.0 0.00 0.00 0.00 86 1010.5
20240523020550 82 0 1.0 5.0 0.00 0.00 0.00 86 1010.3
20240523020100 82 0 0.0 5.0 0.00 0.00 0.00 86 1010.1
20240523015550 82 0 0.0 4.0 0.00 0.00 0.00 86 1010.2
20240523015051 82 120 0.0 7.0 0.00 0.00 0.00 86 1010.2
20240523014548 82 0 0.0 7.0 0.00 0.00 0.00 85 1010.0
20240523014055 82 0 0.0 5.0 0.00 0.00 0.00 85 1009.8
20240523013552 83 129 0.0 6.0 0.00 0.00 0.00 85 1009.6
20240523013050 83 153 0.0 6.0 0.00 0.00 0.00 85 1009.6
20240523012550 83 140 0.0 6.0 0.00 0.00 0.00 84 1009.6
20240523012049 83 145 0.0 5.0 0.00 0.00 0.00 84 1009.4
20240523011606 83 0 0.0 3.0 0.00 0.00 0.00 84 1009.4
20240523011048 83 148 0.0 6.0 0.00 0.00 0.00 84 1009.6
20240523010553 83 0 0.0 6.0 0.00 0.00 0.00 84 1009.3
20240523010057 83 0 0.0 3.0 0.00 0.00 0.00 83 1009.3
20240523005552 83 0 0.0 5.0 0.00 0.00 0.00 83 1009.2
20240523005051 83 0 0.0 5.0 0.00 0.00 0.00 83 1009.3
20240523004555 83 126 0.0 5.0 0.00 0.00 0.00 83 1009.3
20240523004051 84 132 0.0 4.0 0.00 0.00 0.00 83 1009.4
20240523003551 84 0 0.0 8.0 0.00 0.00 0.00 82 1009.3
20240523003051 84 0 1.0 8.0 0.00 0.00 0.00 82 1009.3
20240523002551 84 153 0.0 8.0 0.00 0.00 0.00 82 1009.3
20240523002051 84 0 1.0 8.0 0.00 0.00 0.00 82 1009.1
20240523001550 84 159 0.0 4.0 0.00 0.00 0.00 82 1009.4
20240523001053 84 0 0.0 3.0 0.00 0.00 0.00 82 1009.5
20240523000551 84 0 0.0 3.0 0.00 0.00 0.00 82 1009.2
20240523000054 84 0 0.0 3.0 0.00 0.00 0.00 82 1009.5
20240522235551 84 0 0.0 5.0 0.00 0.00 0.00 82 1009.6
20240522235050 84 0 0.0 5.0 0.00 0.00 0.00 82 1009.7
20240522234548 85 0 0.0 5.0 0.00 0.00 0.00 81 1009.7
20240522234050 85 0 0.0 5.0 0.00 0.00 0.00 81 1009.6
20240522233551 85 0 0.0 5.0 0.00 0.00 0.00 80 1009.5
20240522233056 85 140 0.0 3.0 0.00 0.00 0.00 80 1009.4
20240522232548 85 0 0.0 4.0 0.00 0.00 0.00 80 1009.3
20240522232051 85 0 0.0 7.0 0.00 0.00 0.00 80 1009.4
20240522231558 85 0 1.0 7.0 0.00 0.00 0.00 80 1009.4
20240522231055 85 228 0.0 8.0 0.00 0.00 0.00 80 1009.1
20240522230551 85 0 1.0 8.0 0.00 0.00 0.00 80 1008.9
20240522230053 85 0 0.0 6.0 0.00 0.00 0.00 80 1008.9
20240522225552 85 154 0.0 7.0 0.00 0.00 0.00 80 1008.9
20240522225050 85 0 1.0 7.0 0.00 0.00 0.00 80 1009.0
20240522224552 85 173 0.0 6.0 0.00 0.00 0.00 79 1009.1
20240522224051 85 0 0.0 6.0 0.00 0.00 0.00 79 1009.3
20240522223551 85 116 0.0 5.0 0.00 0.00 0.00 79 1009.3
20240522223052 85 127 1.0 6.0 0.00 0.00 0.00 79 1009.4
20240522222551 85 155 0.0 6.0 0.00 0.00 0.00 79 1009.3
20240522222051 85 0 1.0 6.0 0.00 0.00 0.00 78 1009.1
20240522221553 86 0 0.0 6.0 0.00 0.00 0.00 77 1009.2
20240522221048 86 180 0.0 7.0 0.00 0.00 0.00 78 1009.1
20240522220555 86 0 1.0 7.0 0.00 0.00 0.00 77 1009.1
20240522220054 86 142 1.0 7.0 0.00 0.00 0.00 76 1009.0
20240522215551 87 142 1.0 9.0 0.00 0.00 0.00 75 1008.9
20240522215051 87 0 1.0 9.0 0.00 0.00 0.00 75 1008.9
20240522214549 87 0 1.0 6.0 0.00 0.00 0.00 74 1008.9
20240522214052 87 0 1.0 7.0 0.00 0.00 0.00 75 1008.9
20240522213551 87 0 1.0 7.0 0.00 0.00 0.00 74 1009.0
20240522213101 87 0 1.0 8.0 0.00 0.00 0.00 75 1009.2
20240522212554 87 158 2.0 8.0 0.00 0.00 0.00 75 1009.2
20240522212051 88 0 0.0 6.0 0.00 0.00 0.00 76 1009.3
20240522211552 88 131 1.0 8.0 0.00 0.00 0.00 75 1009.4
20240522211057 88 161 1.0 8.0 0.00 0.00 0.00 76 1009.5
20240522210551 88 0 1.0 5.0 0.00 0.00 0.00 76 1009.4
20240522210052 88 0 0.0 9.0 0.00 0.00 0.00 74 1009.3
20240522205548 88 107 2.0 9.0 0.00 0.00 0.00 73 1009.3
20240522205050 88 151 1.0 7.0 0.00 0.00 0.00 74 1009.4
20240522204552 88 0 1.0 7.0 0.00 0.00 0.00 74 1009.3
20240522204051 89 144 1.0 7.0 0.00 0.00 0.00 74 1009.2
20240522203550 89 0 1.0 7.0 0.00 0.00 0.00 74 1009.3
20240522203049 89 0 1.0 7.0 0.00 0.00 0.00 73 1009.6
20240522202550 89 0 1.0 6.0 0.00 0.00 0.00 72 1009.6
20240522202057 89 175 2.0 6.0 0.00 0.00 0.00 72 1009.6
20240522201600 89 152 1.0 7.0 0.00 0.00 0.00 73 1009.7
20240522201051 89 126 0.0 9.0 0.00 0.00 0.00 73 1009.7
20240522200549 89 113 1.0 9.0 0.00 0.00 0.00 73 1009.9
20240522200051 90 0 0.0 6.0 0.00 0.00 0.00 73 1010.0
20240522195553 90 136 1.0 5.0 0.00 0.00 0.00 73 1010.0
20240522195051 90 0 0.0 6.0 0.00 0.00 0.00 73 1010.1
20240522194609 90 0 1.0 9.0 0.00 0.00 0.00 74 1010.2
20240522194054 89 140 1.0 9.0 0.00 0.00 0.00 76 1010.3
20240522193550 89 134 2.0 9.0 0.00 0.00 0.00 76 1010.4
20240522193051 89 0 1.0 6.0 0.00 0.00 0.00 76 1010.6
20240522192551 89 142 1.0 6.0 0.00 0.00 0.00 75 1010.8
20240522192050 89 0 2.0 9.0 0.00 0.00 0.00 76 1010.8
20240522191608 89 0 1.0 9.0 0.00 0.00 0.00 75 1010.9
20240522191052 89 142 0.0 8.0 0.00 0.00 0.00 76 1011.1
20240522190551 89 138 2.0 8.0 0.00 0.00 0.00 76 1011.2
20240522190056 89 159 1.0 7.0 0.00 0.00 0.00 77 1011.3
20240522185552 88 0 2.0 6.0 0.00 0.00 0.00 77 1011.3
20240522185051 88 136 1.0 13.0 0.00 0.00 0.00 78 1011.3
20240522184555 88 173 2.0 13.0 0.00 0.00 0.00 78 1011.2
20240522184052 87 0 0.0 9.0 0.00 0.00 0.00 78 1011.2
20240522183552 87 0 1.0 9.0 0.00 0.00 0.00 78 1011.3
20240522183059 88 0 1.0 5.0 0.00 0.00 0.00 76 1011.4
20240522182547 88 143 0.0 7.0 0.00 0.00 0.00 77 1011.4
20240522182048 88 0 1.0 7.0 0.00 0.00 0.00 77 1011.5
20240522181601 88 157 1.0 7.0 0.00 0.00 0.00 79 1011.4
20240522181051 87 0 1.0 7.0 0.00 0.00 0.00 79 1011.6
20240522180548 87 144 2.0 10.0 0.00 0.00 0.00 80 1011.5
20240522180059 86 0 1.0 10.0 0.00 0.00 0.00 80 1011.7
20240522175549 86 0 1.0 6.0 0.00 0.00 0.00 80 1011.6
20240522175054 86 144 0.0 5.0 0.00 0.00 0.00 80 1011.5
20240522174600 86 0 0.0 7.0 0.00 0.00 0.00 80 1011.4
20240522174051 86 0 1.0 9.0 0.00 0.00 0.00 79 1011.6
20240522173554 87 0 2.0 9.0 0.00 0.00 0.00 79 1011.7
20240522173052 87 137 2.0 9.0 0.00 0.00 0.00 79 1011.7
20240522172552 87 0 2.0 9.0 0.00 0.00 0.00 78 1011.7
20240522172050 87 169 1.0 7.0 0.00 0.00 0.00 78 1011.7
20240522171555 88 111 1.0 7.0 0.00 0.00 0.00 78 1011.7
20240522171050 88 117 2.0 10.0 0.00 0.00 0.00 78 1011.6
20240522170550 88 0 2.0 10.0 0.00 0.00 0.00 77 1011.5
20240522170050 88 158 2.0 9.0 0.00 0.00 0.00 77 1011.6
20240522165554 88 117 2.0 9.0 0.00 0.00 0.00 78 1011.6
20240522165048 88 133 2.0 9.0 0.00 0.00 0.00 77 1011.8
20240522164550 88 0 2.0 9.0 0.00 0.00 0.00 78 1011.9
20240522164048 88 157 1.0 8.0 0.00 0.00 0.00 78 1011.8
20240522163550 88 138 3.0 7.0 0.00 0.00 0.00 77 1011.8
20240522163051 88 142 1.0 7.0 0.00 0.00 0.00 78 1011.8
20240522162547 88 0 2.0 7.0 0.00 0.00 0.00 77 1011.8
20240522162051 88 0 0.0 6.0 0.00 0.00 0.00 78 1011.8
20240522161555 88 0 0.0 7.0 0.00 0.00 0.00 78 1011.8
20240522161051 87 0 1.0 6.0 0.00 0.00 0.00 78 1011.8
20240522160550 87 144 0.0 8.0 0.00 0.00 0.00 77 1011.9
20240522160056 87 0 1.0 8.0 0.00 0.00 0.00 78 1011.9
20240522155552 87 150 0.0 8.0 0.00 0.00 0.00 78 1011.9
20240522155050 87 149 0.0 9.0 0.00 0.00 0.00 77 1011.9
20240522154609 88 0 2.0 12.0 0.00 0.00 0.00 76 1011.8
20240522154050 87 138 0.0 12.0 0.00 0.00 0.00 77 1011.8